Location: Poughquag
(41.6090°N, 73.6820°W)
Time: 22:08:44
(UTC-05:00)

N. Korean satellite - Pass Details

Date: 25 January 2021
Orbit: 451 x 503 km, 97.2° (Epoch: 24 February)

Event Time Altitude Azimuth Distance (km) Brightness Sun altitude
Rises 04:27:21 0° 31° (NNE) 2,498 10.6 -30.9°
Reaches altitude 10° 04:30:04 10° 54° (NE) 1,607 9.8 -30.4°
Maximum altitude 04:32:12 16° 93° (E) 1,291 9.5 -30.0°
Drops below altitude 10° 04:34:20 10° 132° (SE) 1,587 9.7 -29.6°
Sets 04:36:58 0° 155° (SSE) 2,448 10.4 -29.1°
